Icon-app
Strava
Free app for iPhone
Download

Pope - Bellevue - Southhill (from mission)

Ride Segment San Francisco, CA
  • 1.7km
    Distance
  • 8%
    Avg Grade
  • 57m
    Lowest Elev
  • 193m
    Highest Elev
  • 137m
    Elev Difference
  • Climb Category
    250 Attempts By 51 People

Men's Leaderboard

Rank Name Speed Power VAM Time
1 Bret Lobree 18.5km/h 325W 1433 5:43
2 Brooks S. 17.1km/h 315W Powermeter 1325 6:11
3 Chris Z. 16.8km/h 276W 1300 6:18
4 Chris Donahue 16.3km/h 310W 1260 6:30
5 Christon DeWan 15.9km/h 319W 1232 6:39
6 Chris Kurrle 15.9km/h 280W Powermeter 1225 6:41
7 Scott Rossi 15.2km/h 284W Powermeter 1173 6:59
8 Elliott N. 15.1km/h 267W 1165 7:02
9 Beckett Madden-Woods 14.5km/h 231W 1122 7:18
10 Jantzen Holt 14.5km/h 228W 1117 7:20
11 james van zoeren 14.4km/h 296W 1114 7:21
12 Ryan Minobe 13.8km/h 282W 1066 7:41
13 Chris Gaither 13.7km/h 248W 1061 7:43
14 Ethan Atkins 13.6km/h 272W Powermeter 1052 7:47
15 Cliff Macfarlane 13.4km/h 207W 1032 7:56
16 Dave Borowitz 13.2km/h 272W 1020 8:02
17 Aaron N. 13.2km/h 264W 1017 8:03
18 Peter Rigano 13.1km/h 256W 1015 8:04
19 Devon Proctor 12.9km/h 277W 995 8:14
20 Simon G. 12.7km/h 225W 985 8:19

Join Strava to see the full leaderboard

Women's Leaderboard

Rank Name Speed Power VAM Time
1 Katie E. 13.8km/h 259W 1064 7:42
2 Alena K. 12.7km/h 180W 985 8:19
3 Amy Padula 10.6km/h 163W 815 10:03
4 Ada Wong 10.2km/h - 791 10:21
5 Sf V. 9.9km/h 160W 764 10:43